NOAA NWS Hourly Roundups by Site

Regional Weather Roundup for Bismarck, ND

To Select Another Site Choose from List

Select Site:  

000
ASUS43 KBIS 222210
RWRBIS

NWR BROADCAST TEXT
NATIONAL WEATHER SERVICE BISMARCK ND
500 PM CDT SUN SEP 22 2019

NOTE: "FAIR" INDICATES FEW OR NO CLOUDS BELOW 12,000 FEET WITH NO
SIGNIFICANT WEATHER AND/OR OBSTRUCTIONS TO VISIBILITY.


CITY           SKY/WX    TMP DP  RH WIND       PRES   REMARKS
WILLISTON      MOSUNNY   72  44  36 W12G21    29.82S
MINOT          SUNNY     69  49  48 W9        29.81F
MINOT AFB      NOT AVBL
BISMARCK       MOSUNNY   70  40  33 SW7       29.86S
DICKINSON      MOSUNNY   68  42  38 W7        29.86S
GARRISON         N/A     68  44  42 W8        29.83S
HETTINGER ARPT MOSUNNY   66  43  43 W10       29.90F
JAMESTOWN      SUNNY     66  46  48 W13       29.84S
CARRINGTON     FAIR      70  46  43 NW7G14    29.85F
HAZEN          MOCLDY    70  46  43 W8        29.86S
MANDAN         FAIR      68  45  42 MISG      29.86F
OAKES          CLOUDY    70  46  43 NW9       29.86S
RUGBY          FAIR      64  46  52 W6        29.82S
STANLEY        FAIR      68  48  49 SW13      29.83F
TIOGA          FAIR      70  43  37 W13G20    29.83F
WATFORD CITY   FAIR      70  46  43 W7G16     29.83S
$$

CITY           SKY/WX    TMP DP  RH WIND       PRES   REMARKS
GRAND FORKS    PTSUNNY   68  50  52 N3        29.80F
GRAND FORKS AF NOT AVBL
DEVILS LAKE    MOSUNNY   65  43  44 NW10      29.83S
FARGO          MOSUNNY   70  47  43 W15       29.82F
CANDO          FAIR      63  45  51 W6        29.85S
CAVALIER       FAIR      68  46  45 NW9       29.79S
GRAFTON        FAIR      70  48  46 W6        29.81F
GWINNER        PTCLDY    70  45  40 NW13G20   29.85S
LANGDON        FAIR      64  48  55 W15       29.82S
ROLLA          FAIR      64  46  52 SW10      29.83S
WALHALLA       FAIR      64  50  59 CALM      29.80S
$$

CITY           SKY/WX    TMP DP  RH WIND       PRES   REMARKS
ABERDEEN       MOSUNNY   72  44  36 NW8       29.88S
MOBRIDGE       MOSUNNY   71  48  43 W3        29.88S
BUFFALO          N/A     70  32  24 W14       29.88F
RAPID CITY     PTSUNNY   67  42  40 N7        29.96S
GLASGOW        SUNNY     73  44  35 W16       29.82F
SIDNEY         PTSUNNY   71  45  39 W13G22    29.84S
WOLF POINT     SUNNY     71  43  36 SW15      29.83F
GLENDIVE       MOSUNNY   70  42  36 W13       29.88S
MILES CITY     SUNNY     69  42  37 W12       29.89F
BAKER          MOSUNNY   67  36  31 NW9       29.91F
$$

CITY           SKY/WX    TMP DP  RH WIND       PRES   REMARKS
BILLINGS       MOSUNNY   69  43  38 SW17G23   29.92F
GREAT FALLS    SUNNY     74  40  29 SW12G24   29.85F
REGINA         MOSUNNY   72  46  40 W12G21    29.75F
ESTEVAN        SUNNY     70  46  43 W12G17    29.79S
$$



 

View Past Reports for Bismarck, ND.

Products Courtesy of NOAA-NWS
NWS Information Parsing Script by Ken True at Saratoga Weather - Script by SE Lincoln Weather.